Location: Oberwangen
(47.4286°N, 8.9679°E)
Time: 06:52:05
(UTC+00:00)

Cosmos 1892 - Pass Details

Date: 20 June 2021
Orbit: 501 x 524 km, 82.5° (Epoch: 04 August)

Event Time Altitude Azimuth Distance (km) Brightness Sun altitude
Exits shadow 23:30:37 41° 132° (SE) 769 3.2 -19.1°
Maximum altitude 23:31:24 48° 94° (E) 690 3.2 -19.1°
Drops below altitude 10° 23:35:10 10° 20° (NNE) 1,775 6.5 -19.1°
Sets 23:37:21 0° 15° (NNE) 2,668 7.8 -19.1°
